N0KTA-2 Weather Reports


Display with metric or nautical units.
time (UTC)temp
F
wind
direction
speed
MPH
gust
MPH
rain 1hr
in
rain 24hr
in
rain mn
in
humidity
%
barometer
mb
20260905210049 100 185 3.0 6.0 0.00 0.00 0.00 38 1005.9
20260905205050 100 234 3.0 5.0 0.00 0.00 0.00 38 1006.0
20260905204049 100 188 3.0 6.0 0.00 0.00 0.00 38 1006.3
20260905203050 100 288 2.0 5.0 0.00 0.00 0.00 38 1006.4
20260905202049 100 203 0.0 5.0 0.00 0.00 0.00 38 1006.5
20260905201050 100 191 6.0 8.0 0.00 0.00 0.00 37 1006.6
20260905200049 100 180 3.0 9.0 0.00 0.00 0.00 39 1006.6
20260905195050 100 163 6.0 6.0 0.00 0.00 0.00 39 1006.9
20260905194049 99 184 3.0 7.0 0.00 0.00 0.00 40 1007.0
20260905193050 99 204 1.0 3.0 0.00 0.00 0.00 41 1007.0
20260905192049 99 187 7.0 10.0 0.00 0.00 0.00 41 1007.1
20260905191051 99 343 1.0 1.0 0.00 0.00 0.00 41 1007.1
20260905190050 99 182 3.0 5.0 0.00 0.00 0.00 41 1007.3
20260905185050 98 207 2.0 3.0 0.00 0.00 0.00 43 1007.5
20260905184050 98 21 0.0 1.0 0.00 0.00 0.00 41 1007.6
20260905183049 98 99 2.0 3.0 0.00 0.00 0.00 42 1007.8
20260905182049 97 299 0.0 1.0 0.00 0.00 0.00 44 1007.8
20260905181050 97 175 2.0 3.0 0.00 0.00 0.00 46 1008.0
20260905180049 97 300 0.0 2.0 0.00 0.00 0.00 45 1007.9
20260905175051 98 266 1.0 3.0 0.00 0.00 0.00 43 1008.0
20260905174051 97 328 0.0 2.0 0.00 0.00 0.00 45 1008.0
20260905173050 97 278 1.0 1.0 0.00 0.00 0.00 44 1008.2
20260905172049 96 227 3.0 5.0 0.00 0.00 0.00 46 1008.4
20260905171050 96 189 7.0 12.0 0.00 0.00 0.00 45 1008.5
20260905170049 96 253 1.0 2.0 0.00 0.00 0.00 48 1008.5
20260905165050 95 179 3.0 6.0 0.00 0.00 0.00 48 1008.6
20260905164049 95 186 5.0 9.0 0.00 0.00 0.00 48 1008.5
20260905163050 95 251 2.0 5.0 0.00 0.00 0.00 48 1008.6
20260905162051 94 189 5.0 5.0 0.00 0.00 0.00 50 1008.6
20260905161050 93 222 3.0 5.0 0.00 0.00 0.00 51 1008.6
20260905160049 92 178 2.0 3.0 0.00 0.00 0.00 52 1008.5
20260905155050 91 207 2.0 3.0 0.00 0.00 0.00 54 1008.6
20260905154049 90 241 1.0 3.0 0.00 0.00 0.00 55 1008.6
20260905153051 90 281 3.0 3.0 0.00 0.00 0.00 55 1008.6
20260905152049 89 202 1.0 5.0 0.00 0.00 0.00 57 1008.7
20260905151049 88 219 0.0 1.0 0.00 0.00 0.00 58 1008.5
20260905150050 87 243 1.0 2.0 0.00 0.00 0.00 60 1008.4
20260905145049 87 196 2.0 3.0 0.00 0.00 0.00 60 1008.3
20260905144050 86 242 2.0 3.0 0.00 0.00 0.00 61 1008.2
20260905143049 86 203 3.0 7.0 0.00 0.00 0.00 62 1008.3
20260905142050 85 181 2.0 3.0 0.00 0.00 0.00 63 1008.2
20260905141050 84 209 2.0 6.0 0.00 0.00 0.00 64 1008.1
20260905140049 83 176 2.0 3.0 0.00 0.00 0.00 65 1008.1
20260905135050 82 188 3.0 3.0 0.00 0.00 0.00 67 1008.1
20260905134049 81 189 2.0 3.0 0.00 0.00 0.00 69 1008.2
20260905133049 80 183 2.0 3.0 0.00 0.00 0.00 70 1008.2
20260905132049 80 178 2.0 3.0 0.00 0.00 0.00 70 1008.1
20260905131050 79 191 1.0 3.0 0.00 0.00 0.00 72 1008.1
20260905130049 78 187 2.0 3.0 0.00 0.00 0.00 73 1007.9
20260905125050 77 176 1.0 2.0 0.00 0.00 0.00 73 1008.0
20260905124049 77 188 1.0 1.0 0.00 0.00 0.00 74 1007.9
20260905123049 77 204 0.0 2.0 0.00 0.00 0.00 74 1007.9
20260905122050 77 129 0.0 1.0 0.00 0.00 0.00 74 1007.9
20260905121049 77 125 0.0 1.0 0.00 0.00 0.00 74 1007.6
20260905120049 77 121 0.0 0.0 0.00 0.00 0.00 74 1007.3
20260905115050 77 154 0.0 1.0 0.00 0.00 0.00 73 1007.3
20260905114049 78 156 0.0 2.0 0.00 0.00 0.00 72 1007.3
20260905113050 78 175 0.0 1.0 0.00 0.00 0.00 71 1007.3
20260905112050 78 188 0.0 1.0 0.00 0.00 0.00 71 1007.3
20260905111049 78 186 1.0 2.0 0.00 0.00 0.00 72 1007.3
20260905110050 78 204 0.0 1.0 0.00 0.00 0.00 71 1007.1
20260905105049 78 228 0.0 1.0 0.00 0.00 0.00 71 1007.2
20260905104049 79 193 0.0 0.0 0.00 0.00 0.00 71 1007.2
20260905103050 79 194 0.0 1.0 0.00 0.00 0.00 71 1007.2
20260905102049 78 193 0.0 1.0 0.00 0.00 0.00 71 1007.2
20260905101050 79 217 0.0 1.0 0.00 0.00 0.00 71 1007.3
20260905100049 79 207 0.0 0.0 0.00 0.00 0.00 71 1007.2
20260905095050 79 207 0.0 0.0 0.00 0.00 0.00 71 1007.4
20260905094050 79 198 0.0 0.0 0.00 0.00 0.00 70 1007.3
20260905093050 80 110 0.0 0.0 0.00 0.00 0.00 69 1007.3
20260905092049 80 196 0.0 2.0 0.00 0.00 0.00 68 1007.4
20260905091050 80 216 0.0 1.0 0.00 0.00 0.00 67 1007.5
20260905090049 81 184 1.0 2.0 0.00 0.00 0.00 67 1007.4
20260905085050 81 215 0.0 2.0 0.00 0.00 0.00 67 1007.3
20260905084049 81 214 1.0 1.0 0.00 0.00 0.00 67 1007.2
20260905083050 81 187 1.0 2.0 0.00 0.00 0.00 67 1007.2
20260905082049 81 199 1.0 3.0 0.00 0.00 0.00 67 1007.2
20260905081050 82 217 0.0 1.0 0.00 0.00 0.00 66 1007.2
20260905080049 82 190 2.0 3.0 0.00 0.00 0.00 66 1007.3
20260905075050 82 195 1.0 2.0 0.00 0.00 0.00 65 1007.3
20260905074049 82 210 1.0 3.0 0.00 0.00 0.00 65 1007.1
20260905073050 83 186 2.0 3.0 0.00 0.00 0.00 65 1007.0
20260905072049 83 192 2.0 3.0 0.00 0.00 0.00 64 1007.0
20260905071050 83 193 2.0 3.0 0.00 0.00 0.00 64 1007.0
20260905070049 83 197 2.0 3.0 0.00 0.00 0.00 63 1007.1
20260905065048 83 195 3.0 5.0 0.00 0.00 0.00 63 1007.1
20260905064050 83 182 2.0 5.0 0.00 0.00 0.00 63 1006.9
20260905063049 84 195 2.0 3.0 0.00 0.00 0.00 63 1006.9
20260905062049 84 190 2.0 3.0 0.00 0.00 0.00 63 1006.7
20260905061050 84 195 2.0 3.0 0.00 0.00 0.00 62 1006.8
20260905060049 84 190 2.0 3.0 0.00 0.00 0.00 62 1006.8
20260905055050 84 166 3.0 6.0 0.00 0.00 0.00 62 1006.6
20260905054049 84 199 2.0 3.0 0.00 0.00 0.00 62 1006.7
20260905053048 85 190 3.0 3.0 0.00 0.00 0.00 62 1006.8
20260905052049 85 187 1.0 3.0 0.00 0.00 0.00 62 1006.9
20260905051050 85 206 1.0 2.0 0.00 0.00 0.00 61 1007.0
20260905050049 86 172 2.0 2.0 0.00 0.00 0.00 60 1007.2
20260905045050 86 185 2.0 5.0 0.00 0.00 0.00 60 1007.2
20260905044050 86 179 2.0 3.0 0.00 0.00 0.00 60 1007.2
20260905043049 86 199 1.0 3.0 0.00 0.00 0.00 59 1007.3
20260905042049 86 184 1.0 2.0 0.00 0.00 0.00 59 1007.2
20260905041049 86 188 1.0 2.0 0.00 0.00 0.00 59 1007.2
20260905040050 87 168 1.0 2.0 0.00 0.00 0.00 59 1007.3
20260905035050 87 205 1.0 1.0 0.00 0.00 0.00 58 1007.4
20260905034049 87 218 0.0 2.0 0.00 0.00 0.00 58 1007.4
20260905033050 87 174 1.0 3.0 0.00 0.00 0.00 58 1007.4
20260905032049 87 164 1.0 2.0 0.00 0.00 0.00 57 1007.4
20260905031050 87 177 1.0 3.0 0.00 0.00 0.00 57 1007.3
20260905030049 88 166 1.0 1.0 0.00 0.00 0.00 56 1007.4
20260905025049 88 215 0.0 1.0 0.00 0.00 0.00 56 1007.3
20260905024050 88 94 0.0 1.0 0.00 0.00 0.00 55 1006.9
20260905023050 89 178 1.0 2.0 0.00 0.00 0.00 55 1006.8
20260905022049 89 189 0.0 2.0 0.00 0.00 0.00 54 1006.5
20260905021049 89 167 0.0 2.0 0.00 0.00 0.00 54 1006.3
20260905020050 90 190 0.0 1.0 0.00 0.00 0.00 53 1006.2
20260905015049 90 197 0.0 1.0 0.00 0.00 0.00 52 1006.0
20260905014049 91 212 0.0 1.0 0.00 0.00 0.00 52 1005.8
20260905013049 92 219 1.0 1.0 0.00 0.00 0.00 51 1005.8
20260905012049 92 168 1.0 2.0 0.00 0.00 0.00 50 1005.8
20260905011050 93 195 1.0 3.0 0.00 0.00 0.00 49 1005.7
20260905010049 93 201 1.0 1.0 0.00 0.00 0.00 48 1005.8
20260905005050 94 190 2.0 3.0 0.00 0.00 0.00 47 1005.7
20260905004049 95 191 2.0 3.0 0.00 0.00 0.00 47 1005.7
20260905003048 96 157 5.0 7.0 0.00 0.00 0.00 46 1005.5
20260905002049 96 193 2.0 2.0 0.00 0.00 0.00 45 1005.6
20260905001049 96 166 3.0 6.0 0.00 0.00 0.00 45 1005.6
20260905000050 97 178 3.0 6.0 0.00 0.00 0.00 45 1005.6
20260904235050 97 223 2.0 5.0 0.00 0.00 0.00 45 1005.5
20260904234049 97 190 3.0 5.0 0.00 0.00 0.00 44 1005.4
20260904232049 97 179 2.0 5.0 0.00 0.00 0.00 45 1005.4
20260904231050 97 172 7.0 10.0 0.00 0.00 0.00 44 1005.4
20260904230049 98 184 6.0 12.0 0.00 0.00 0.00 44 1005.4
20260904225050 98 173 0.0 1.0 0.00 0.00 0.00 45 1005.2
20260904224049 98 201 2.0 3.0 0.00 0.00 0.00 45 1005.3
20260904223048 98 187 5.0 10.0 0.00 0.00 0.00 44 1005.3
20260904222048 98 225 5.0 6.0 0.00 0.00 0.00 44 1005.3
20260904221049 98 174 5.0 7.0 0.00 0.00 0.00 44 1005.3
20260904220048 98 216 5.0 8.0 0.00 0.00 0.00 44 1005.3
20260904215049 98 192 5.0 6.0 0.00 0.00 0.00 45 1005.4
20260904214048 98 245 1.0 2.0 0.00 0.00 0.00 44 1005.4
20260904213050 98 187 1.0 10.0 0.00 0.00 0.00 44 1005.5
20260904212048 98 176 6.0 10.0 0.00 0.00 0.00 45 1005.5
20260904211050 98 164 5.0 5.0 0.00 0.00 0.00 45 1005.5